Regional Weather Roundup
Issued by NWS Sterling, VA

Home | Current Version | Previous Version | Text Only | Print | Product List | Glossary Off
Versions: 1 2 3 4 5 6 7 8 9 10 11 12 13 14 15 16 17 18 19 20 21 22 23 24 25 26 27 28 29 30 31 32 33 34 35 36 37 38 39 40 41 42 43 44 45 46 47 48 49 50

000
ASUS41 KLWX 271710
RWRLWX

REGIONAL WEATHER ROUNDUP
NATIONAL WEATHER SERVICE BALTIMORE MD/WASHINGTON DC
1200 PM EST TUE JAN 27 2015

Note: "FAIR" indicates few or no clouds below 12,000 feet
with no significant weather and/or obstructions to visibility.
 TC=TEMPERATURE CELSIUS

 * =Non NWS site. Station does not report precipitation (e.g. rain,
    snow, etc.), thunder, or fog.

DCZ001-MDZ009-015-VAZ040>042-051-053>054-271800-
WASHINGTON METRO

CITY           SKY/WX    TMP DP  RH WIND       PRES   REMARKS
WASHINGTON NAT CLOUDY    34  22  61 NW18      29.82F WCI  23
DULLES         CLOUDY    31  21  66 NW17      29.82F WCI  19
ANDREWS AFB    CLOUDY    31  23  73 NW15      29.79F WCI  20
FT BELVOIR     PTSUNNY   33  22  66 NW16G22   29.82F WCI  22
QUANTICO       CLOUDY    33  22  63 N14G23    29.84F WCI  23
COLLEGE PARK*  CLOUDY    32  25  74 NW8       29.80F WCI  25
LEESBURG*      CLOUDY    32  27  80 N17       29.83S WCI  21
MANASSAS*      CLOUDY    34  25  69 NW16G23   29.83F WCI  23
GAITHERSBURG*  PTSUNNY   28  19  69 NW14G20   29.83F WCI  17

$$

MDZ006>007-011-014-271800-
BALTIMORE METRO

CITY           SKY/WX    TMP DP  RH WIND       PRES   REMARKS
BWI AIRPORT    PTSUNNY   33  22  63 NW7       29.79F
MD SCIENCE CTR   N/A     32  21  64 MISG      29.80F
MARTIN STATE   PTSUNNY   34  25  69 NW15      29.81F WCI  24
ANNAPOLIS      CLOUDY    33  22  63 NW13      29.79F WCI  24
FORT MEADE*    CLOUDY    32  25  74 NW6       29.82F

$$

MDZ012-015-019>023-271800-
MARYLAND EASTERN SHORE

CITY           SKY/WX    TMP DP  RH WIND       PRES   REMARKS
OCEAN CITY     CLOUDY    32  24  72 N14G23    29.71F WCI  22
SALISBURY      CLOUDY    35  26  69 NW16G23   29.73F WCI  25
BAY BRIDGE AP*   N/A     32  27  80 N13G20    29.79F WCI  22
CAMBRIDGE*     MOSUNNY   36  28  75 NW15G21   29.75F WCI  26
EASTON*        PTSUNNY   34  28  80 N12G23    29.80F WCI  25

$$

MDZ017>025-271800-
SOUTHERN MARYLAND

CITY           SKY/WX    TMP DP  RH WIND       PRES   REMARKS
PATUXENT RIVER CLOUDY    33  24  69 NW16      29.77F WCI  23
ST INIGOES     CLOUDY    34  22  61 NW9G17    29.77F WCI  27
LEONARDTOWN*   CLOUDY    32  23  69 NW7       29.79F

$$

MDZ003>005-271800-
NORTH CENTRAL MARYLAND

CITY           SKY/WX    TMP DP  RH WIND       PRES   REMARKS
FREDERICK*     CLOUDY    34  21  60 NW8       29.85F WCI  27
HAGERSTOWN APT CLOUDY    30  21  69 NW10      29.82F WCI  21
WESTMINSTER*   CLOUDY    28  21  74 NW10G20   29.79S WCI  19

$$

MDZ501>502-271800-
WESTERN MARYLAND

CITY           SKY/WX    TMP DP  RH WIND       PRES   REMARKS
OAKLAND*       CLOUDY    18 N/A N/A CALM      29.76F FOG
CUMBERLAND*    PTSUNNY   30  18  59 CALM      29.91F

$$

VAZ025>031-271800-
SHENANDOAH VALLEY

CITY           SKY/WX    TMP DP  RH WIND       PRES   REMARKS
WINCHESTER*    CLOUDY    30  19  64 NW16      29.84F WCI  19
FRONT ROYAL*   CLOUDY    30  21  69 NW7       29.84F
LURAY*         LGT SNOW  32  27  80 CALM      29.84F
NEW MARKET*    CLOUDY    28  18  65 N8        29.85S WCI  20
STAUNTON*      CLOUDY    30  19  62 NE10      29.84F WCI  21
WAYNESBORO*    CLOUDY    28  19  69 N3        29.80F

$$

WVZ021-048>050-054>055-271800-
EASTERN WEST VIRGINIA PANHANDLE

CITY           SKY/WX    TMP DP  RH WIND       PRES   REMARKS
MARTINSBURG    CLOUDY    30  20  66 NW13      29.84F WCI  20
PETERSBURG*    SUNNY     29  12  50 N7        29.88F

$$

VAZ036>039-050-271800-
CENTRAL FOOTHILLS

CITY           SKY/WX    TMP DP  RH WIND       PRES   REMARKS
CHARLOTTESVILL CLOUDY    32  21  64 N8        29.81F WCI  25
CULPEPER*      CLOUDY    32  23  69 N9G17     29.83F WCI  24
ORANGE*        CLOUDY    36  27  69 N8        29.83F
GORDONSVILLE*  CLOUDY    32  26  78 NW5       29.81F
WARRENTON*     CLOUDY    34  29  80 NW10G18   29.82F WCI  26

$$

VAZ055>057-271800-
NORTH AND CENTRAL PIEDMONT

CITY           SKY/WX    TMP DP  RH WIND       PRES   REMARKS
FREDERICKSBRG* CLOUDY    34  24  67 NW13G21   29.82F WCI  25
STAFFORD*      CLOUDY    32  22  67 NW15G23   29.86F WCI  22

$$

NCZ024-NYZ072-PAZ021-071-VAZ022-071-271800-
OTHER REGIONAL OBSERVATIONS

CITY           SKY/WX    TMP DP  RH WIND       PRES   REMARKS
NEW YORK CITY  CLOUDY    27  18  69 N10G22    29.69F HAZE    WCI  17
PHILADELPHIA   CLOUDY    31  19  61 NW20      29.74F WCI  19
PITTSBURGH     FLURRIES  21  15  78 NW12      29.93S WCI   9
ROANOKE        MOSUNNY   37   8  30 NW8       29.84F
RICHMOND       CLOUDY    35  25  66 N16       29.80F WCI  25
RALEIGH        PTSUNNY   36  18  48 VRB6      29.83F

$$

ANZ530>537-271800-
MARINE OBSERVATIONS

STATION/POSITION TIME  TEMP    WIND        PRES
                       AIR SEA DIR/SP/G
                 (UTC) (F)     (DEG/KT/KT) (MB)
THOMAS PT LIGHT  1700   32 37  340/ 17/ 19 1009.3F
BALT KEY BRIDGE  1700   31     330/ 15/ 17 1009.0S
COVE POINT       1700   30     340/ 19/ 21 1008.0S
LEWISETTA        1700   33 38  320/ 13/ 17 1008.3S
SOLOMONS ISLAND  1700      38                N/A
PINEY POINT      1700          340/ 21/ 23   N/A

$$



USA.gov is the U.S. government's official web portal to all federal, state and local government web resources and services.